FALCON 9 R/B

基本信息
目录编号:
54248
目录名称:
FALCON 9 R/B
国际标识:
2022-153C
轨道中心:
EARTH
物体状态:
已陨落(2024-03-30)
发射日期:
2022-11-12 UTC
国别:
美国 (US)
轨道信息
数据来源: 国际轨道数据
星历时间: 2024-03-30T12:37:42+0800
半长轴: 8442.328km
偏心率: 0.2322286
轨道倾角: 25.748°
近地点辐角: 26.059°
升交点赤经: 6.083°
平近点角: 64.403°
近地点: 103.642km
远地点: 4024.744km
周期: 128.663分钟
每日圈数: 11.192045
详细信息
发射场:
AFETR
轨道高度:
LEO
数据来源:
AOE Integration Group
参考系:
TEME
时间系统:
UTC
历元类型:
SGP4
2D轨道图
3D轨道图
轨道高度分析图
轨道倾角分析图
轨道综合分析图
查看轨道综合分析图